Location: Easthampton
(42.2676°N, 72.6690°W)
Time: 15:12:43
(UTC+00:00)

XW-2B - Visible Passes

Search period start: 20 March 2023 00:00
Search period end: 30 March 2023 00:00
Orbit: 480 x 500 km, 97.5° (Epoch: 20 March)

Date Brightness Start Highest point End Pass type
(mag) Time Alt. Az. Time Alt. Az. Time Alt. Az.
22 Mar ? 10:12:04 10° ENE 10:14:06 14° E 10:16:08 10° SE visible
23 Mar ? 23:35:07 10° W 23:35:43 10° W 23:36:20 10° W visible
26 Mar ? 10:14:17 10° NE 10:16:30 15° E 10:18:41 10° SE visible
